Regional Weather Roundup
Issued by NWS Little Rock, AR

Home | Current Version | Previous Version | Text Only | Print | Product List | Glossary On
Versions: 1 2 3 4 5 6 7 8 9 10 11 12 13 14 15 16 17 18 19 20 21 22 23 24 25 26 27 28 29 30 31 32 33 34 35 36 37 38 39 40 41 42 43 44 45 46 47 48 49 50
000
ASUS44 KLZK 222105
RWRLZK

WEATHER ROUNDUP FOR ARKANSAS
NATIONAL WEATHER SERVICE LITTLE ROCK AR
300 PM CST SAT NOV 22 2014

NOTE: "FAIR" INDICATES FEW OR NO CLOUDS BELOW 12,000 FEET WITH NO
SIGNIFICANT WEATHER AND/OR OBSTRUCTIONS TO VISIBILITY.

ARZ001-003-010-029-222200-
NORTHWEST ARKANSAS

CITY           SKY/WX    TMP DP  RH WIND       PRES   REMARKS
FAYETTEVILLE   RAIN      52  52 100 S6        29.96F
FORT SMITH     RAIN      53  52  96 NE7       29.99F FOG
HARRISON       RAIN      51  50  96 SE12      29.98F FOG
BENTONVILLE    CLOUDY    54  48  82 S13G18    29.95F
ROGERS         LGT RAIN  52  51  97 S14       29.94F
SILOAM SPGS    CLOUDY    54  46  76 S12       29.94F
HIGHFILL       RAIN      53  52  96 S15       29.93F
SPRINGDALE     LGT RAIN  52  52 100 SE9       29.97F FOG
$$

ARZ004-005-016-222200-
NORTH CENTRAL ARKANSAS

CITY           SKY/WX    TMP DP  RH WIND       PRES   REMARKS
BATESVILLE     CLOUDY    61  48  63 S6        30.02F
FLIPPIN        CLOUDY    52  48  87 E5        30.01F
MTN HOME       RAIN      51  51 100 S5        30.01F FOG
$$

ARZ040-041-222200-
WEST CENTRAL ARKANSAS

CITY           SKY/WX    TMP DP  RH WIND       PRES   REMARKS
MENA           CLOUDY    59  55  88 CALM      29.99F
MOUNT IDA      CLOUDY    60  55  83 CALM      29.97F
$$

ARZ009-017-025-026-028-222200-
NORTHEAST ARKANSAS

CITY           SKY/WX    TMP DP  RH WIND       PRES   REMARKS
CORNING        FAIR      63  48  59 SW10      30.05F
JONESBORO      CLOUDY    65  46  50 S15       30.05F
NEWPORT        CLOUDY    63  49  60 S12       30.05F
WALNUT RIDGE   PTSUNNY   61  45  55 S12       30.04F
BLYTHEVILLE    CLOUDY    76  41  28 S12       30.07F
$$

ARZ022-023-033-042-044-222200-
CENTRAL ARKANSAS

CITY           SKY/WX    TMP DP  RH WIND       PRES   REMARKS
LITTLE ROCK    PTSUNNY   67  50  54 SE8       30.01F
N LITTLE ROCK  PTSUNNY   64  53  67 E8        30.01F
JACKSONVILLE   MOSUNNY   66  51  59 SE6       30.02F
SEARCY         PTSUNNY   63  51  65 SE9       30.04F
HOT SPRINGS    MOSUNNY   65  53  65 SE5       29.97F
RUSSELLVILLE   CLOUDY    57  53  86 N7        30.02S
CLINTON        CLOUDY    55  54  94 CALM      30.04S
$$

ARZ036-222200-
EAST ARKANSAS

CITY           SKY/WX    TMP DP  RH WIND       PRES   REMARKS
WEST MEMPHIS   CLOUDY    64  45  49 SE15      30.06F
$$

ARZ050-053-066-070-073-222200-
SOUTHWEST ARKANSAS

CITY           SKY/WX    TMP DP  RH WIND       PRES   REMARKS
ARKADELPHIA    FAIR      70  56  61 SE8       29.98F
CAMDEN         SUNNY     72  50  46 NE12G20   29.97F
TEXARKANA      PTSUNNY   70  52  52 S15G22    29.95F
EL DORADO      SUNNY     70  55  59 SE15      29.98F
DE QUEEN       CLOUDY    63  57  81 NE5       29.95F
$$

ARZ056-057-069-222200-
SOUTHEAST ARKANSAS

CITY           SKY/WX    TMP DP  RH WIND       PRES   REMARKS
PINE BLUFF     SUNNY     69  53  56 SE15      30.01F
STUTTGART      CLOUDY    64  52  63 SE13      30.04F
MONTICELLO     MOSUNNY   69  53  56 SE9G21    30.02F

$$




USA.gov is the U.S. government's official web portal to all federal, state and local government web resources and services.